Stations météo

Publicité
Logan Botanic Garden, Grande-Bretagne (99193): Température de l'air & dewpoint: 11.11.2018 17:00:00 - 17.11.2018 17:00:00 (GMT)Logan Botanic Garden, Grande-Bretagne (99193): Température de l'air -20cm: 11.11.2018 17:00:00 - 17.11.2018 17:00:00 (GMT)Logan Botanic Garden, Grande-Bretagne (99193): Quantités de précipitations: 11.11.2018 17:00:00 - 17.11.2018 17:00:00 (GMT)
Date & Time tt [°C] td [°C] tt -20cm [°C] rr [mm]
17.11.2018 17:00:00 - - - -
17.11.2018 16:00:00 9,7 6,9 - 0,0
17.11.2018 15:00:00 9,9 7,3 - 0,0
17.11.2018 14:00:00 9,4 6,9 - 0,0
17.11.2018 13:00:00 9,2 6,7 - 0,0
17.11.2018 12:00:00 8,9 7,1 - 0,0
17.11.2018 11:00:00 8,6 7,0 - 0,0
17.11.2018 10:00:00 8,3 7,0 - 0,0
17.11.2018 09:00:00 9,1 7,9 10,7 0,0
17.11.2018 08:00:00 9,4 8,5 - 0,0
17.11.2018 07:00:00 9,7 8,7 - 0,0
17.11.2018 06:00:00 10,2 9,1 - 0,0
17.11.2018 05:00:00 10,6 9,5 - 0,0
17.11.2018 04:00:00 10,9 9,6 - 0,0
17.11.2018 03:00:00 11,0 10,0 - 0,0
17.11.2018 02:00:00 10,8 9,6 - 0,0
17.11.2018 01:00:00 11,4 10,0 - 0,0
17.11.2018 00:00:00 11,1 9,7 - -
16.11.2018 23:00:00 11,5 9,6 - 0,0
16.11.2018 22:00:00 11,6 9,9 - 0,0
16.11.2018 21:00:00 11,8 9,7 - 0,0
16.11.2018 20:00:00 11,9 10,3 - 0,0
16.11.2018 19:00:00 11,8 10,6 - 0,0
16.11.2018 18:00:00 11,9 10,6 - 0,0
16.11.2018 17:00:00 11,9 10,7 - 0,0
16.11.2018 16:00:00 11,9 11,2 - 0,0
16.11.2018 15:00:00 12,0 11,3 - 0,0
16.11.2018 14:00:00 12,0 11,4 - 0,0
16.11.2018 13:00:00 12,8 11,8 - 0,0
16.11.2018 12:00:00 12,6 11,9 - 0,0
16.11.2018 11:00:00 12,0 11,5 - 0,0
16.11.2018 10:00:00 12,6 11,5 - 0,0
16.11.2018 09:00:00 12,5 11,4 10,5 0,0
16.11.2018 08:00:00 12,2 11,4 - 0,0
16.11.2018 07:00:00 12,2 11,7 - 0,0
16.11.2018 06:00:00 11,4 11,2 - 0,0
16.11.2018 05:00:00 9,1 9,0 - 0,0
16.11.2018 04:00:00 7,7 7,4 - 0,0
16.11.2018 03:00:00 7,9 7,5 - 0,0
16.11.2018 02:00:00 8,7 8,2 - 0,0
16.11.2018 01:00:00 8,6 7,9 - 0,0
16.11.2018 00:00:00 9,8 8,8 - 0,0
15.11.2018 23:00:00 10,1 8,7 - 0,0
15.11.2018 22:00:00 11,3 9,3 - 0,0
15.11.2018 21:00:00 11,3 9,7 - 0,0
15.11.2018 20:00:00 10,9 9,7 - 0,0
15.11.2018 19:00:00 10,6 9,6 - 0,6
15.11.2018 18:00:00 12,4 11,6 - 0,0
15.11.2018 17:00:00 13,0 11,2 - 0,0
15.11.2018 16:00:00 13,1 10,8 - 0,0
15.11.2018 15:00:00 13,1 10,5 - 0,0
15.11.2018 14:00:00 13,1 10,4 - 0,0
15.11.2018 13:00:00 13,0 10,2 - 0,0
15.11.2018 12:00:00 12,4 10,0 - 0,0
15.11.2018 11:00:00 11,8 9,7 - 0,0
15.11.2018 10:00:00 11,7 9,4 - 0,0
15.11.2018 09:00:00 11,8 9,9 10,5 0,0
15.11.2018 08:00:00 11,9 10,1 - 0,0
15.11.2018 07:00:00 11,9 10,3 - 0,0
15.11.2018 06:00:00 11,7 10,9 - 0,0
15.11.2018 05:00:00 11,8 11,2 - 0,2
15.11.2018 04:00:00 11,7 11,2 - 0,0
15.11.2018 03:00:00 11,8 11,3 - 0,0
15.11.2018 02:00:00 12,1 11,5 - 0,0
15.11.2018 01:00:00 12,4 11,3 - 0,0
15.11.2018 00:00:00 12,7 11,2 - 0,0
14.11.2018 23:00:00 12,6 11,1 - 0,0
14.11.2018 22:00:00 12,4 11,1 - 0,0
14.11.2018 21:00:00 12,2 11,3 - 0,2
14.11.2018 20:00:00 12,9 11,0 - 0,0
14.11.2018 19:00:00 12,7 11,1 - 0,0
14.11.2018 18:00:00 12,7 11,3 - 0,0
14.11.2018 17:00:00 12,6 11,5 - 0,0
14.11.2018 16:00:00 12,5 11,6 - 0,0
14.11.2018 15:00:00 12,7 11,6 - 0,0
14.11.2018 14:00:00 12,7 11,7 - 0,0
14.11.2018 13:00:00 12,8 11,7 - 0,0
14.11.2018 12:00:00 12,7 11,8 - 0,0
14.11.2018 11:00:00 12,7 11,9 - 0,0
14.11.2018 10:00:00 12,6 11,9 - 0,0
14.11.2018 09:00:00 12,7 12,0 10,0 0,2
14.11.2018 08:00:00 12,6 12,0 - 0,0
14.11.2018 07:00:00 12,4 12,1 - 1,8
14.11.2018 06:00:00 12,3 12,0 - 3,0
14.11.2018 05:00:00 12,2 11,8 - 1,6
14.11.2018 04:00:00 12,1 11,8 - 2,2
14.11.2018 03:00:00 11,7 11,4 - 1,0
14.11.2018 02:00:00 11,4 11,0 - 0,6
14.11.2018 01:00:00 11,3 10,6 - 0,6
14.11.2018 00:00:00 11,1 10,1 - 0,4
13.11.2018 23:00:00 11,9 10,6 - 0,0
13.11.2018 22:00:00 12,2 10,0 - 0,0
13.11.2018 21:00:00 12,1 10,1 - 0,0
13.11.2018 20:00:00 12,1 9,8 - 0,0
13.11.2018 19:00:00 11,8 9,3 - 0,0
13.11.2018 18:00:00 11,7 9,0 - 0,0
13.11.2018 17:00:00 11,4 8,6 - 0,0
13.11.2018 16:00:00 11,2 8,0 - 0,0
13.11.2018 15:00:00 10,6 7,4 - 0,0
13.11.2018 14:00:00 10,9 7,9 - 0,0
13.11.2018 13:00:00 11,1 7,7 - 0,0
13.11.2018 12:00:00 11,0 7,3 - 0,0
13.11.2018 11:00:00 10,8 7,4 - 0,0
13.11.2018 10:00:00 10,1 7,2 - 0,0
13.11.2018 09:00:00 8,8 6,8 9,9 0,0
13.11.2018 08:00:00 8,7 6,6 - 0,0
13.11.2018 07:00:00 8,6 6,6 - 0,0
13.11.2018 06:00:00 9,3 6,8 - 0,0
13.11.2018 05:00:00 9,7 7,4 - 0,0
13.11.2018 04:00:00 9,4 7,4 - 0,0
13.11.2018 03:00:00 9,7 7,4 - 0,0
13.11.2018 02:00:00 9,7 7,5 - 0,0
13.11.2018 01:00:00 9,7 7,5 - 0,0
13.11.2018 00:00:00 9,7 7,7 - 0,0
12.11.2018 23:00:00 9,8 7,7 - 0,0
12.11.2018 22:00:00 10,2 7,6 - 0,0
12.11.2018 21:00:00 10,4 7,7 - 0,4
12.11.2018 20:00:00 9,9 8,0 - 2,6
12.11.2018 19:00:00 11,0 8,1 - 0,0
12.11.2018 18:00:00 11,2 7,1 - 0,0
12.11.2018 17:00:00 11,2 8,1 - 0,0
12.11.2018 16:00:00 11,2 7,9 - 0,0
12.11.2018 15:00:00 11,6 8,2 - 0,0
12.11.2018 14:00:00 11,7 8,4 - 0,0
12.11.2018 13:00:00 11,5 8,2 - 0,0
12.11.2018 12:00:00 11,6 7,8 - 0,0
12.11.2018 11:00:00 11,6 8,1 - 0,0
12.11.2018 10:00:00 11,6 8,1 - 0,0
12.11.2018 09:00:00 11,3 8,2 9,7 0,0
12.11.2018 08:00:00 11,3 8,5 - 0,0
12.11.2018 07:00:00 11,2 8,8 - 0,0
12.11.2018 06:00:00 11,4 8,7 - 0,0
12.11.2018 05:00:00 11,3 8,6 - 0,0
12.11.2018 04:00:00 11,4 8,4 - 0,0
12.11.2018 03:00:00 11,3 8,0 - 0,0
12.11.2018 02:00:00 11,6 8,6 - 0,0
12.11.2018 01:00:00 11,3 8,4 - 0,0
12.11.2018 00:00:00 11,5 8,2 - 0,0
11.11.2018 23:00:00 11,3 8,0 - 0,0
11.11.2018 22:00:00 11,5 8,2 - 0,0
11.11.2018 21:00:00 11,2 7,5 - 0,0
11.11.2018 20:00:00 11,4 7,5 - 0,0
11.11.2018 19:00:00 10,5 7,3 - 0,0
11.11.2018 18:00:00 9,4 6,2 - 0,0
11.11.2018 17:00:00 10,7 7,1 - 0,0

tt = Température de l'air
td = dewpoint
tt -20cm = Température de l'air -20cm
rr = Quantités de précipitations

stations d'obs. à proximité